Weather in Paustovo

Russia / Vladimir Oblast     56°07′02″N   42°10′15″E
temp.,
°C
wind,
m/s
gust,
m/s
humid.,
%
clouds,
%
prec.,
mm/h
press.,
hPa
HPBL,
m
7 march, sun
sun700:00−13wsw23940 0.0 101373
03:00−13ssw24960 0.0 1011114
06:00−12ssw499387 0.0 1008242
09:00−9ssw6138294 0.0 1004589
12:00−6ssw81389100 0.4 9991072
15:00−4ssw71292100 1.9 9951066
18:00−4ssw51294100 1.3 993799
21:00−4sw2697100 3.1 991291
8 march, mon
mon800:00−7nw41082100 3.5 990387
03:00−9w4981100 3.5 993230
06:00−9w389599 0.1 994359
09:00−8wsw479090 0.3 996374
12:00−6sw3584100 0.0 997690
15:00−5wsw2486100 0.8 998523
18:00−9nw348992 0.3 100083
21:00−11nw389259 0.3 1003229
9 march, tue
tue900:00−12nw389591 0.0 1006254
03:00−13nw379693 0.1 1008231
06:00−16nnw369688 0.1 1010196
09:00−15nnw359290 0.1 1012305
12:00−13nnw3585100 0.0 1013472
15:00−12nnw3583100 0.1 1015654
18:00−15nnw3891100 0.1 1015433
21:00−18nnw389596 0.1 1018300
10 march, wed
wed1000:00−19nnw379599 0.1 1019289
03:00−22nnw379799 0.1 1021231
06:00−24nnw379692 0.0 1022222
09:00−24nnw369180 0.0 1024282
12:00−19nnw358243 0.0 1025521
15:00−16nnw357743 0.0 1025624
18:00−19nw23890 0.0 102530
21:00−20w35960 0.0 1026117
11 march, thu
thu1100:00−20wnw379351 0.0 1026196
03:00−21wnw379452 0.0 1027184
06:00−22w36910 0.0 1027160
09:00−18w35790 0.0 1028245
12:00−12w35720 0.0 1027376
15:00−8wsw35700 0.0 1027594
18:00−12ssw33890 0.0 102655
21:00−15ssw49900 0.0 1026235